When you browse on this site, cookies collect data to enhance your experience and personalize the content and advertising you see.
Visit our Privacy Policy to learn more. By continuing to use the site, you agree to this use of cookies and data.
  • In Czech Republic
  • List of Countries
  • For 7 days
  • Water Temperature
  • Weather Map
  • Weather Widgets
  • user-avatar
    Login

    Hourly Weather Karlsruhe

    Today, 14 December, Saturday

    Time Temperature Precipitation Wind Pressure Humidity
    00:00 +3°C° 0 mm 6 mps 734 mmHg 81%
    01:00 +3°C° 0 mm 6 mps 734 mmHg 80%
    02:00 +3°C° 0.5 mm 6 mps 733 mmHg 83%
    03:00 +3°C° 0.5 mm 6 mps 732 mmHg 86%
    04:00 +3°C° 0.5 mm 6 mps 731 mmHg 88%
    05:00 +4°C° 0.8 mm 7 mps 731 mmHg 87%
    06:00 +5°C° 0.8 mm 8 mps 731 mmHg 85%
    07:00 +7°C° 0.8 mm 8 mps 730 mmHg 83%
    08:00 +6°C° 0.1 mm 8 mps 732 mmHg 79%
    09:00 +6°C° 0.1 mm 8 mps 734 mmHg 75%
    10:00 +6°C° 0.1 mm 8 mps 735 mmHg 72%
    11:00 +6°C° 0.2 mm 8 mps 737 mmHg 70%
    12:00 +6°C° 0.2 mm 8 mps 738 mmHg 67%
    13:00 +6°C° 0.2 mm 8 mps 739 mmHg 65%
    14:00 +6°C° 0 mm 7 mps 740 mmHg 67%
    15:00 +6°C° 0 mm 7 mps 740 mmHg 68%
    16:00 +7°C° 0 mm 6 mps 740 mmHg 70%
    17:00 +7°C° 0 mm 6 mps 741 mmHg 71%
    18:00 +7°C° 0 mm 6 mps 741 mmHg 73%
    19:00 +7°C° 0 mm 6 mps 741 mmHg 75%
    20:00 +7°C° 0.1 mm 6 mps 742 mmHg 78%
    21:00 +7°C° 0.1 mm 5 mps 742 mmHg 81%
    22:00 +7°C° 0.1 mm 4 mps 743 mmHg 84%
    23:00 +8°C° 0 mm 3 mps 742 mmHg 86%

    Tomorrow, 15 December, Sunday

    Time Temperature Precipitation Wind Pressure Humidity
    00:00 +8°C° 0 mm 3 mps 742 mmHg 87%
    01:00 +8°C° 0 mm 2 mps 742 mmHg 89%
    02:00 +8°C° 1.1 mm 3 mps 741 mmHg 90%
    03:00 +8°C° 1.1 mm 4 mps 741 mmHg 91%
    04:00 +8°C° 1.1 mm 4 mps 740 mmHg 92%
    05:00 +9°C° 0.6 mm 5 mps 740 mmHg 89%
    06:00 +10°C° 0.6 mm 7 mps 740 mmHg 86%
    07:00 +10°C° 0.6 mm 8 mps 740 mmHg 84%
    08:00 +10°C° 0.3 mm 7 mps 741 mmHg 83%
    09:00 +10°C° 0.3 mm 7 mps 741 mmHg 81%
    10:00 +10°C° 0.3 mm 6 mps 742 mmHg 80%
    11:00 +10°C° 0.5 mm 6 mps 743 mmHg 81%
    12:00 +10°C° 0.5 mm 6 mps 743 mmHg 81%
    13:00 +10°C° 0.5 mm 5 mps 744 mmHg 81%
    14:00 +10°C° 0.6 mm 4 mps 744 mmHg 84%
    15:00 +9°C° 0.6 mm 3 mps 744 mmHg 86%
    16:00 +9°C° 0.6 mm 2 mps 745 mmHg 88%
    17:00 +8°C° 0.7 mm 2 mps 745 mmHg 90%
    18:00 +9°C° 0.7 mm 1 mps 745 mmHg 92%
    19:00 +9°C° 0.7 mm 1 mps 746 mmHg 94%
    20:00 +9°C° 0.4 mm 1 mps 746 mmHg 94%
    21:00 +9°C° 0.4 mm 1 mps 746 mmHg 94%
    22:00 +9°C° 0.4 mm 1 mps 746 mmHg 94%
    23:00 +9°C° 0.2 mm 1 mps 746 mmHg 94%

    Day after tomorrow, 16 December, Monday

    Time Temperature Precipitation Wind Pressure Humidity
    00:00 +9°C° 0.2 mm 1 mps 746 mmHg 93%
    01:00 +10°C° 0.2 mm 1 mps 746 mmHg 93%
    02:00 +10°C° 0.4 mm 1 mps 746 mmHg 93%
    03:00 +10°C° 0.4 mm 1 mps 746 mmHg 93%
    04:00 +10°C° 0.4 mm 1 mps 746 mmHg 92%
    05:00 +10°C° 0.1 mm 1 mps 745 mmHg 90%
    06:00 +10°C° 0.1 mm 1 mps 745 mmHg 87%
    07:00 +9°C° 0.1 mm 2 mps 745 mmHg 84%
    08:00 +10°C° 0 mm 1 mps 745 mmHg 81%
    09:00 +10°C° 0 mm 1 mps 745 mmHg 78%
    10:00 +10°C° 0 mm 1 mps 745 mmHg 75%
    11:00 +11°C° 0 mm 1 mps 745 mmHg 73%
    12:00 +12°C° 0 mm 1 mps 744 mmHg 71%
    13:00 +12°C° 0 mm 1 mps 744 mmHg 69%
    14:00 +12°C° 0 mm 1 mps 743 mmHg 72%
    15:00 +11°C° 0 mm 1 mps 743 mmHg 74%
    16:00 +10°C° 0 mm 1 mps 743 mmHg 77%
    17:00 +10°C° 0 mm 1 mps 743 mmHg 78%
    18:00 +10°C° 0 mm 1 mps 743 mmHg 78%
    19:00 +9°C° 0 mm 1 mps 743 mmHg 79%
    20:00 +9°C° 0 mm 1 mps 742 mmHg 80%
    21:00 +9°C° 0 mm 1 mps 742 mmHg 80%
    22:00 +7°C° 0 mm 2 mps 742 mmHg 81%
    23:00 +9°C° 0 mm 1 mps 742 mmHg 81%

    17 December, Tuesday

    Time Temperature Precipitation Wind Pressure Humidity
    00:00 +9°C° 0 mm 1 mps 742 mmHg 81%
    01:00 +9°C° 0 mm 1 mps 742 mmHg 82%
    02:00 +9°C° 0.1 mm 1 mps 742 mmHg 83%
    03:00 +9°C° 0.1 mm 1 mps 742 mmHg 84%
    04:00 +9°C° 0.1 mm 1 mps 742 mmHg 85%
    05:00 +8°C° 0 mm 1 mps 742 mmHg 85%
    06:00 +8°C° 0 mm 1 mps 743 mmHg 85%
    07:00 +7°C° 0 mm 0 mps 743 mmHg 85%
    08:00 +9°C° 0 mm 1 mps 743 mmHg 83%
    09:00 +9°C° 0 mm 1 mps 744 mmHg 82%
    10:00 +10°C° 0 mm 1 mps 744 mmHg 80%
    11:00 +10°C° 0 mm 1 mps 744 mmHg 77%
    12:00 +11°C° 0 mm 1 mps 744 mmHg 75%
    13:00 +12°C° 0 mm 1 mps 743 mmHg 72%
    14:00 +12°C° 0 mm 1 mps 743 mmHg 74%
    15:00 +11°C° 0 mm 1 mps 744 mmHg 76%
    16:00 +11°C° 0 mm 1 mps 744 mmHg 77%
    17:00 +10°C° 0 mm 1 mps 744 mmHg 79%
    18:00 +10°C° 0 mm 1 mps 744 mmHg 81%
    19:00 +10°C° 0 mm 1 mps 745 mmHg 83%
    20:00 +10°C° 0 mm 1 mps 745 mmHg 83%
    21:00 +10°C° 0 mm 1 mps 745 mmHg 83%
    22:00 +10°C° 0 mm 1 mps 745 mmHg 83%
    23:00 +10°C° 0 mm 1 mps 745 mmHg 82%

    18 December, Wednesday

    Time Temperature Precipitation Wind Pressure Humidity
    00:00 +10°C° 0 mm 1 mps 746 mmHg 82%
    01:00 +10°C° 0 mm 1 mps 746 mmHg 81%
    02:00 +10°C° 0 mm 1 mps 746 mmHg 82%
    03:00 +10°C° 0 mm 1 mps 747 mmHg 82%
    04:00 +10°C° 0 mm 1 mps 747 mmHg 82%
    05:00 +9°C° 0 mm 1 mps 747 mmHg 83%
    06:00 +9°C° 0 mm 1 mps 747 mmHg 84%
    07:00 +9°C° 0 mm 1 mps 747 mmHg 85%
    08:00 +9°C° 0 mm 1 mps 747 mmHg 84%
    09:00 +9°C° 0 mm 0 mps 748 mmHg 84%
    10:00 +9°C° 0 mm 0 mps 748 mmHg 83%
    11:00 +9°C° 0 mm 0 mps 748 mmHg 82%
    12:00 +10°C° 0 mm 0 mps 748 mmHg 81%
    13:00 +10°C° 0 mm 0 mps 748 mmHg 80%
    14:00 +10°C° 0 mm 0 mps 748 mmHg 83%
    15:00 +10°C° 0 mm 0 mps 748 mmHg 85%
    16:00 +9°C° 0 mm 0 mps 748 mmHg 88%
    17:00 +9°C° 0 mm 0 mps 748 mmHg 89%
    18:00 +9°C° 0 mm 1 mps 748 mmHg 90%
    19:00 +9°C° 0 mm 1 mps 748 mmHg 91%
    20:00 +9°C° 0 mm 1 mps 748 mmHg 91%
    21:00 +8°C° 0 mm 1 mps 748 mmHg 92%
    22:00 +8°C° 0 mm 1 mps 748 mmHg 92%
    23:00 +8°C° 0 mm 1 mps 747 mmHg 92%

    19 December, Thursday

    Time Temperature Precipitation Wind Pressure Humidity
    00:00 +8°C° 0 mm 1 mps 747 mmHg 93%
    01:00 +8°C° 0 mm 1 mps 747 mmHg 93%
    02:00 +7°C° 0 mm 1 mps 747 mmHg 93%
    03:00 +7°C° 0 mm 1 mps 747 mmHg 93%
    04:00 +7°C° 0 mm 1 mps 746 mmHg 92%
    05:00 +7°C° 0 mm 1 mps 746 mmHg 92%
    06:00 +7°C° 0 mm 1 mps 746 mmHg 92%
    07:00 +6°C° 0 mm 1 mps 746 mmHg 92%
    08:00 +7°C° 0 mm 1 mps 746 mmHg 91%
    09:00 +7°C° 0 mm 1 mps 746 mmHg 89%
    10:00 +8°C° 0 mm 1 mps 746 mmHg 88%
    11:00 +9°C° 0 mm 1 mps 745 mmHg 84%
    12:00 +10°C° 0 mm 1 mps 745 mmHg 81%
    13:00 +11°C° 0 mm 1 mps 744 mmHg 78%
    14:00 +10°C° 0 mm 1 mps 744 mmHg 80%
    15:00 +10°C° 0 mm 1 mps 744 mmHg 83%
    16:00 +8°C° 0 mm 2 mps 743 mmHg 85%
    17:00 +8°C° 0 mm 2 mps 743 mmHg 86%
    18:00 +7°C° 0 mm 2 mps 742 mmHg 88%
    19:00 +7°C° 0 mm 2 mps 742 mmHg 89%
    20:00 +7°C° 0 mm 2 mps 741 mmHg 89%
    21:00 +6°C° 0 mm 2 mps 741 mmHg 89%
    22:00 +6°C° 0 mm 2 mps 740 mmHg 90%
    23:00 +6°C° 0 mm 2 mps 740 mmHg 89%
    Show more